Regional Weather Roundup
Issued by NWS

Home | Current Version | Previous Version | Text Only | Print | Product List | Glossary On
Versions: 1 2 3 4 5 6 7 8 9 10 11 12 13 14 15 16 17 18 19 20 21 22 23 24 25 26 27 28 29 30 31 32 33 34 35 36 37 38 39 40 41 42 43 44 45 46 47 48 49 50
000
ASUS43 KLSX 040659
RWRMO

WEATHER SUMMARY FOR MISSOURI
NATIONAL WEATHER SERVICE SPRINGFIELD MO
200 AM CDT SAT JUL 04 2015

NOTE: "FAIR" INDICATES FEW OR NO CLOUDS BELOW 12,000 FEET WITH NO
       SIGNIFICANT WEATHER AND/OR OBSTRUCTIONS TO VISIBILITY.
       CURRENT SKY AND/OR WEATHER CONDITIONS ARE NOT AVAILABLE FOR
       CHILLICOTHE AND FARMINGTON.

MOZ001>031-035>038-043-044-053-054-040800-
...NORTHERN AND WESTERN MISSOURI...

CITY           SKY/WX    TMP DP  RH WIND       PRES   REMARKS
KANSAS CTY INT CLEAR     68  58  70 E5        29.99F
KANSAS C DTWN  LGT RAIN  69  60  73 CALM      29.98F
LEE`S SUMMIT   PTCLDY    64  60  87 CALM      30.00S
ST JOSEPH      CLEAR     61  59  93 NW3       29.99F
CHILLICOTHE      N/A     62  60  93 CALM      30.01R
KIRKSVILLE     CLEAR     58  55  90 CALM      30.00S

$$
MOZ066>068-077>081-088>096-101>105-040800-
...SOUTHWEST MISSOURI...

CITY           SKY/WX    TMP DP  RH WIND       PRES   REMARKS
SPRINGFIELD    CLEAR     68  64  87 CALM      29.97R
JOPLIN         PTCLDY    69  67  93 NE5       29.97S

$$
MOZ032>034-039>042-045>050-055>058-069>072-040800-
...CENTRAL MISSOURI...

CITY           SKY/WX    TMP DP  RH WIND       PRES   REMARKS
COLUMBIA       CLEAR     66  60  81 NE6       29.97F
JEFFERSON CITY CLEAR     66  61  84 W5        29.96S
ROLLA          CLEAR     63  61  93 N5        29.96S
SEDALIA        CLEAR     65  62  90 CALM      29.99S
OSAGE BEACH    CLEAR     63  61  94 CALM      29.97S

$$
MOZ051-052-059>065-040800-
...EAST CENTRAL MISSOURI...

CITY           SKY/WX    TMP DP  RH WIND       PRES   REMARKS
ST LOUIS INTL  CLEAR     72  66  81 N5        29.96S HAZE
SPIRIT OF STL  CLEAR     66  65  96 CALM      29.95S FOG
ST CHARLES     CLEAR     69  68  96 NE3       29.95S FOG

$$
MOZ072>076-082>087-097>100-106>115-040800-
...SOUTH CENTRAL AND SOUTHEAST MISSOURI...

CITY           SKY/WX    TMP DP  RH WIND       PRES   REMARKS
CAPE GIRARDEAU MOCLDY    68  68 100 W3        29.91S
FARMINGTON     CLEAR     66  66 100 N6        29.98F
POPLAR BLUFF   PTCLDY    70  69  97 N3        29.90F
WEST PLAINS    PTCLDY    67  64  90 N3        29.97R

$$



USA.gov is the U.S. government's official web portal to all federal, state and local government web resources and services.